User: anonymous
Location: Washington
(38.8950°N, 77.0370°W)
Time: 06:26:02
(UTC-04:00)
Language:

IDEFIX/ARIANE 42P - Orbit

View from above orbital plane
View from above orbital plane
View from above satellite
View from above satellite

Ground track
Ground track

The orbit data is extracted from the following two-line orbital elements,

1 27422U 02021B   14274.74253943  .00000201  00000-0  95742-4 0  6099
2 27422 098.2897 312.1085 0011144 288.6588 184.4700 14.29055859645353
Epoch (UTC): 01 October 2014 17:49:15
Eccentricity: 0.0011144
inclination: 98.2897°
perigee height: 787 km
apogee height: 803 km
right ascension of ascending node: 312.1085°
argument of perigee: 288.6588°
revolutions per day: 14.29055859
mean anomaly at epoch: 184.4700°
orbit number at epoch: 64535

The dashed part of the orbit path shows where the satellite is in the earth's shadow,  

DLR